COSMOS 1275 DEB, 42184

Orbit data source: Space-Track

COSMOS 1275 DEB, 42184 is space debris in LEO originally from a launch on Thu, 04 Jun 1981 UTC launched from the Plesetsk Missile And Space Complex (PKMTR). Debris objects in space refer to the collection of defunct objects orbiting the Earth. Examples of debris include non-operational satellites, rocket bodies, and fragments generated from explosions, collisions, or faulty payload assembly.

Loading next visibility...
Identifier
42184, 1981-053SY
Orbit
LEO
Country
Flag of CISCIS
Related business
Manufacturer
Unknown
Mission
Spacecraft
Bus & Motor
Unknown
Mass
Unknown
Launch date (UTC)
1981-06-04 (44 years ago)
Launch vehicle
Unknown
Launch site
Plesetsk Missile And Space Complex (PKMTR)
Object type
Payload
Rocket body
Debris
Shape & HBR
Unknown
Radar Cross Section
Small (<0.1 m²)

Expand to show TLE details & history
Last TLE update: 6 days ago

TLE from 6 days ago
0 COSMOS 1275 DEB
1 42184U 81053SY  25255.48327708  .00000200  00000-0  23079-3 0  9990
2 42184  83.0246 147.0141 0095796 139.7099  38.3816 13.62226857573743
Epoch: 2025-09-12T11:35Z
TLE epoch observation values (Epoch: 2025-09-12T11:35:55.139Z)
Latitude
1.10367°
Longitude
161.16967°
Altitude
974.999 km
Speed
7.392 km/s
True Right ascension
21h 47m 31s
True Declination
1° 05' 50"
Sunlit
Object was in full shadow at epoch
Visualization orbit readout
Latitude
Unknown
Longitude
Unknown
Altitude
Unknown
Speed
Unknown
Apparent Right ascension
Unknown
Apparent Declination
Unknown
Sunlit
N/A
Visualization observer readout
Local Sidereal Time
13:34:52
Azimuth
Unknown
Elevation
Unknown
Doppler factor
Unknown
Orbital elements
Apogee altitude
1,095.69 km
Perigee altitude
953.856 km
Semi-major axis
7,402.91 km
Eccentricity
0.00958
Inclination
83.0246°
RAAN
147.0141°
Arg. of periapsis
139.7099°
True anomaly
39.06962°
Mean anomaly
38.3816°
Eccentric anomaly
38.72496°
Mean motion
3.40753 °/min
Orbital period
105.65 mins
BSTAR
0.00023079
Loading maneuver chart data...
Computing Atmospheric mass density...
Loading historical data...
Loading historical data...
Loading historical data...
Loading historical data...
Loading historical data...
Loading historical data...
Loading historical data...

Documentation

Showing up to 5 results
|